Flag for Portugal Weather past 2 weeks in Porto, Portugal

Now
79 °F

Sunny.


Feels Like: 81 °F
Forecast: 63 / 73 °F
Wind: 3 mph from North

Location: Porto / Pedras Rubras

Current Time: Aug 30, 2015 at 11:50:54 AM

Latest Report: Aug 30, 2015 at 11:30 AM


Visibility: 10 mi

Pressure: 29.89 "Hg

Humidity: 70%

Dew point: 68 °F

Location of PortoLocation

Historic Weather in Porto — Graph

°F

Porto temperature yesterday

Maximum temperature yesterday: 77 °F (at 2:30 PM)
Minimum temperature yesterday: 61 °F (at 3:30 AM)
Average temperature yesterday: 69 °F

Past Weeks' High & Low Weather Summary

 TemperatureHumidityPressure
High81 °F (Aug 19, 3:00 PM)100% (Aug 15, 11:30 PM)30.15 "Hg (Aug 15, 11:30 PM)
Low54 °F (Aug 18, 7:00 AM)42% (Aug 19, 4:00 PM)29.83 "Hg (Aug 23, 3:30 PM)
Average66 °F87%30.01 "Hg
* Reported Aug 15 10:00 AM — Aug 30 10:30 AM, Porto, Weather by CustomWeather, © 2015

Note: Actual official high and low records may vary slightly from our data, if they occured in-between our weather recording intervals... More about our weather records

Advertising

Porto weather history for previous 24 hours

 ConditionsComfort  
Time TempWeatherWind HumidityBarometerVisibility
10:30 AM
Sun, Aug 30
73 °FClear.5 mph89%29.89 "Hg5 mi
10:00 AM72 °FPassing clouds.3 mph94%29.89 "Hg5 mi
9:30 AM66 °FScattered clouds.3 mph100%29.89 "Hg4 mi
9:00 AM64 °FMild.1 mph100%29.89 "Hg1 mi
8:30 AM64 °FFog.2 mph100%29.89 "Hg1 mi
8:00 AM64 °FFog.3 mph100%29.89 "Hg0 mi
7:30 AM64 °FFog.3 mph100%29.89 "Hg0 mi
7:00 AM64 °FMild.2 mph100%29.89 "Hg1 mi
6:30 AM64 °FFog.5 mph100%29.89 "Hg1 mi
6:00 AM63 °FFog.2 mph100%29.86 "Hg0 mi
5:30 AM63 °FFog.1 mph100%29.86 "Hg0 mi
5:00 AM61 °FClear.3 mph94%29.86 "Hg10 mi
4:30 AM64 °FClear.3 mph100%29.86 "Hg10 mi
4:00 AM64 °FClear.5 mph100%29.89 "Hg10 mi
3:30 AM64 °FClear.5 mph100%29.86 "Hg10 mi
3:00 AM63 °FClear.No wind100%29.89 "Hg6 mi
2:30 AM64 °FPassing clouds.3 mph100%29.89 "HgN/A
2:00 AM64 °FPassing clouds.No wind100%29.89 "Hg6 mi
1:30 AM64 °FPassing clouds.No wind100%29.89 "Hg4 mi
1:00 AM64 °FFog.3 mph100%29.92 "Hg1 mi
12:30 AM64 °FMild.3 mph100%29.92 "Hg1 mi
12:00 AM64 °FSnow. Overcast.No wind100%29.92 "Hg1 mi
11:30 PM
Sat, Aug 29
64 °FSnow. Overcast.3 mph100%29.92 "Hg1 mi
11:00 PM64 °FSnow. Fog.6 mph100%29.92 "Hg1 mi
10:30 PM66 °FFog.5 mph94%29.95 "Hg2 mi
10:00 PM66 °FPartly cloudy.6 mph100%29.95 "Hg5 mi
9:30 PM66 °FPartly cloudy.6 mph94%29.92 "Hg6 mi
9:00 PM68 °FScattered clouds.3 mph88%29.92 "HgN/A
8:30 PM68 °FPassing clouds.9 mph88%29.92 "HgN/A
8:00 PM70 °FSunny.9 mph83%29.92 "Hg10 mi
7:30 PM72 °FSunny.10 mph78%29.92 "Hg10 mi
7:00 PM72 °FSunny.10 mph83%29.95 "Hg10 mi
6:30 PM72 °FSunny.10 mph78%29.95 "Hg10 mi
6:00 PM73 °FPassing clouds.12 mph74%29.95 "HgN/A
5:30 PM73 °FPassing clouds.12 mph74%29.95 "HgN/A
5:00 PM75 °FPassing clouds.10 mph74%29.95 "HgN/A
4:30 PM75 °FPassing clouds.9 mph78%29.95 "HgN/A
4:00 PM75 °FPassing clouds.12 mph74%29.95 "HgN/A
3:30 PM75 °FSunny.10 mph69%29.95 "Hg10 mi
3:00 PM77 °FSunny.9 mph69%29.98 "Hg10 mi
2:30 PM77 °FPassing clouds.7 mph69%29.98 "HgN/A
2:00 PM75 °FPassing clouds.9 mph74%29.98 "HgN/A
1:30 PM75 °FPassing clouds.9 mph74%29.98 "HgN/A
1:00 PM75 °FPassing clouds.9 mph74%29.98 "HgN/A
12:30 PM75 °FPassing clouds.7 mph74%29.98 "HgN/A
12:00 PM75 °FPassing clouds.9 mph74%29.98 "HgN/A
11:00 AM73 °FPartly sunny.6 mph78%30.01 "HgN/A
Weather by CustomWeather, © 2015

See weather overviewHow to use our weather pages